Location: Newark
(52.3735°N, 16.9806°E)
Time: 04:21:08
(UTC+00:00)

LilacSat-2 - Pass Details

Date: 07 December 2021
Orbit: 511 x 532 km, 97.5° (Epoch: 16 January)

Event Time Altitude Azimuth Distance (km) Brightness Sun altitude
Rises 16:46:19 0° 204° (SSW) 2,635 ? -18.2°
Reaches altitude 10° 16:48:53 10° 223° (SW) 1,758 ? -18.5°
Maximum altitude 16:51:37 19° 269° (W) 1,304 ? -19.0°
Drops below altitude 10° 16:54:23 10° 315° (NW) 1,779 ? -19.4°
Sets 16:57:01 0° 334° (NNW) 2,679 ? -19.8°
